Time,TemperatureF,DewpointF,PressureIn,WindDirection,WindDirectionDegrees,WindSpeedMPH,WindSpeedGustMPH,Humidity,HourlyPrecipIn,Conditions,Clouds,dailyrainin,SoftwareType,DateUTC
2013-07-02 00:01:00,57.7,58.0,29.87,East,85,1.0,7.0,99,0.00,,,0.00,weatherlink.com 1.10,2013-07-02 04:01:00,
2013-07-02 00:16:00,57.6,57.0,29.86,ESE,119,2.0,9.0,99,0.00,,,0.00,weatherlink.com 1.10,2013-07-02 04:16:00,
2013-07-02 00:31:00,57.3,57.0,29.86,NE,53,1.0,11.0,99,0.00,,,0.00,weatherlink.com 1.10,2013-07-02 04:31:00,
2013-07-02 00:46:00,57.0,57.0,29.86,ENE,71,1.0,4.0,99,0.00,,,0.00,weatherlink.com 1.10,2013-07-02 04:46:00,
2013-07-02 01:01:00,56.8,57.0,29.86,ENE,78,1.0,6.0,99,0.00,,,0.00,weatherlink.com 1.10,2013-07-02 05:01:00,
2013-07-02 01:16:00,56.8,57.0,29.86,ENE,73,2.0,5.0,99,0.00,,,0.00,weatherlink.com 1.10,2013-07-02 05:16:00,
2013-07-02 01:31:00,56.9,57.0,29.86,ENE,65,2.0,9.0,99,0.00,,,0.00,weatherlink.com 1.10,2013-07-02 05:31:00,
2013-07-02 01:46:00,57.0,57.0,29.86,ENE,78,0.0,10.0,99,0.00,,,0.00,weatherlink.com 1.10,2013-07-02 05:46:00,
2013-07-02 02:01:00,57.1,57.0,29.86,East,87,1.0,5.0,99,0.00,,,0.00,weatherlink.com 1.10,2013-07-02 06:01:00,
2013-07-02 02:16:00,57.1,57.0,29.86,NE,43,1.0,8.0,99,0.00,,,0.00,weatherlink.com 1.10,2013-07-02 06:16:00,
2013-07-02 02:31:00,57.1,57.0,29.86,ENE,64,3.0,9.0,99,0.00,,,0.00,weatherlink.com 1.10,2013-07-02 06:31:00,
2013-07-02 02:46:00,57.1,57.0,29.86,East,84,0.0,3.0,99,0.00,,,0.00,weatherlink.com 1.10,2013-07-02 06:46:00,
2013-07-02 03:01:00,57.2,57.0,29.86,ENE,58,1.0,6.0,99,0.00,,,0.00,weatherlink.com 1.10,2013-07-02 07:01:00,
2013-07-02 03:16:00,57.4,57.0,29.86,ENE,72,2.0,8.0,99,0.00,,,0.00,weatherlink.com 1.10,2013-07-02 07:16:00,
2013-07-02 03:31:00,57.5,57.0,29.86,East,84,1.0,5.0,99,0.00,,,0.00,weatherlink.com 1.10,2013-07-02 07:31:00,
2013-07-02 03:46:00,57.4,57.0,29.86,ENE,67,1.0,7.0,99,0.00,,,0.00,weatherlink.com 1.10,2013-07-02 07:46:00,
2013-07-02 04:01:00,57.3,57.0,29.87,ENE,61,1.0,5.0,99,0.00,,,0.00,weatherlink.com 1.10,2013-07-02 08:01:00,
2013-07-02 04:16:00,57.4,57.0,29.87,East,101,0.0,9.0,99,0.00,,,0.00,weatherlink.com 1.10,2013-07-02 08:16:00,
2013-07-02 04:31:00,57.3,57.0,29.87,ENE,63,0.0,5.0,99,0.00,,,0.00,weatherlink.com 1.10,2013-07-02 08:31:00,
2013-07-02 04:46:00,57.3,57.0,29.88,NE,34,1.0,7.0,99,0.00,,,0.00,weatherlink.com 1.10,2013-07-02 08:46:00,
2013-07-02 05:01:00,57.1,57.0,29.88,East,89,2.0,3.0,99,0.00,,,0.00,weatherlink.com 1.10,2013-07-02 09:01:00,
2013-07-02 05:16:00,57.0,57.0,29.88,NE,51,0.0,6.0,99,0.00,,,0.00,weatherlink.com 1.10,2013-07-02 09:16:00,
2013-07-02 05:31:00,57.1,57.0,29.88,NNE,25,0.0,3.0,99,0.00,,,0.00,weatherlink.com 1.10,2013-07-02 09:31:00,
2013-07-02 05:46:00,57.3,57.0,29.89,ENE,61,0.0,4.0,99,0.00,,,0.00,weatherlink.com 1.10,2013-07-02 09:46:00,
2013-07-02 06:01:00,57.4,57.0,29.89,East,96,3.0,5.0,99,0.00,,,0.00,weatherlink.com 1.10,2013-07-02 10:01:00,
2013-07-02 06:16:00,57.6,57.0,29.89,NE,53,0.0,5.0,99,0.00,,,0.00,weatherlink.com 1.10,2013-07-02 10:16:00,
2013-07-02 06:31:00,57.8,58.0,29.90,ESE,107,3.0,4.0,99,0.00,,,0.00,weatherlink.com 1.10,2013-07-02 10:31:00,
2013-07-02 06:46:00,57.9,58.0,29.90,ENE,63,2.0,7.0,99,0.00,,,0.00,weatherlink.com 1.10,2013-07-02 10:46:00,
2013-07-02 07:01:00,57.9,58.0,29.90,NE,56,1.0,4.0,99,0.00,,,0.00,weatherlink.com 1.10,2013-07-02 11:01:00,
2013-07-02 07:16:00,58.1,58.0,29.91,ENE,75,0.0,5.0,99,0.00,,,0.00,weatherlink.com 1.10,2013-07-02 11:16:00,
2013-07-02 07:31:00,58.2,58.0,29.91,SSE,148,0.0,5.0,99,0.00,,,0.00,weatherlink.com 1.10,2013-07-02 11:31:00,
2013-07-02 07:46:00,58.2,58.0,29.92,ENE,73,1.0,9.0,99,0.00,,,0.00,weatherlink.com 1.10,2013-07-02 11:46:00,
2013-07-02 08:01:00,58.3,58.0,29.93,NE,51,0.0,4.0,99,0.00,,,0.00,weatherlink.com 1.10,2013-07-02 12:01:00,
2013-07-02 08:16:00,58.3,58.0,29.93,NE,34,1.0,7.0,99,0.00,,,0.00,weatherlink.com 1.10,2013-07-02 12:16:00,
2013-07-02 08:31:00,58.3,58.0,29.93,ESE,112,1.0,3.0,99,0.00,,,0.00,weatherlink.com 1.10,2013-07-02 12:31:00,
2013-07-02 08:46:00,58.2,58.0,29.93,East,94,1.0,7.0,99,0.00,,,0.00,weatherlink.com 1.10,2013-07-02 12:46:00,
2013-07-02 09:01:00,58.4,58.0,29.94,ENE,70,1.0,9.0,99,0.00,,,0.00,weatherlink.com 1.10,2013-07-02 13:01:00,
2013-07-02 09:16:00,58.2,58.0,29.94,NE,40,1.0,7.0,99,0.00,,,0.00,weatherlink.com 1.10,2013-07-02 13:16:00,
2013-07-02 09:31:00,58.1,58.0,29.95,NE,53,1.0,5.0,99,0.00,,,0.00,weatherlink.com 1.10,2013-07-02 13:31:00,
2013-07-02 09:47:00,58.2,58.0,29.95,ENE,69,1.0,10.0,99,0.00,,,0.00,weatherlink.com 1.10,2013-07-02 13:47:00,
2013-07-02 10:02:00,58.5,58.0,29.95,ENE,70,0.0,8.0,99,0.00,,,0.00,weatherlink.com 1.10,2013-07-02 14:02:00,
2013-07-02 10:17:00,58.6,58.0,29.95,East,88,2.0,9.0,99,0.00,,,0.00,weatherlink.com 1.10,2013-07-02 14:17:00,
2013-07-02 10:32:00,58.6,58.0,29.96,East,80,0.0,7.0,99,0.00,,,0.00,weatherlink.com 1.10,2013-07-02 14:32:00,
2013-07-02 10:47:00,59.2,59.0,29.96,East,80,1.0,6.0,99,0.00,,,0.00,weatherlink.com 1.10,2013-07-02 14:47:00,
2013-07-02 11:02:00,59.1,59.0,29.97,ENE,78,0.0,5.0,99,0.00,,,0.00,weatherlink.com 1.10,2013-07-02 15:02:00,
2013-07-02 11:17:00,59.5,59.0,29.97,ESE,115,2.0,5.0,99,0.00,,,0.00,weatherlink.com 1.10,2013-07-02 15:17:00,
2013-07-02 11:32:00,59.5,59.0,29.97,East,84,2.0,8.0,99,0.00,,,0.00,weatherlink.com 1.10,2013-07-02 15:32:00,
2013-07-02 11:47:00,60.9,61.0,29.97,SE,137,1.0,7.0,99,0.00,,,0.00,weatherlink.com 1.10,2013-07-02 15:47:00,
2013-07-02 12:02:00,61.3,61.0,29.97,ENE,69,2.0,8.0,99,0.00,,,0.00,weatherlink.com 1.10,2013-07-02 16:02:00,
2013-07-02 12:17:00,62.7,63.0,29.97,NE,39,0.0,9.0,99,0.00,,,0.00,weatherlink.com 1.10,2013-07-02 16:17:00,
2013-07-02 12:32:00,63.7,63.0,29.96,WNW,289,2.0,11.0,98,0.00,,,0.00,weatherlink.com 1.10,2013-07-02 16:32:00,
2013-07-02 12:47:00,64.9,63.0,29.96,NE,50,0.0,5.0,92,0.00,,,0.00,weatherlink.com 1.10,2013-07-02 16:47:00,
2013-07-02 13:02:00,65.3,62.0,29.97,East,98,0.0,7.0,88,0.00,,,0.00,weatherlink.com 1.10,2013-07-02 17:02:00,
2013-07-02 13:17:00,66.3,62.0,29.97,ENE,62,0.0,3.0,86,0.00,,,0.00,weatherlink.com 1.10,2013-07-02 17:17:00,
2013-07-02 13:32:00,65.8,61.0,29.97,ENE,58,0.0,2.0,85,0.00,,,0.00,weatherlink.com 1.10,2013-07-02 17:32:00,
2013-07-02 13:47:00,64.2,61.0,29.97,ESE,112,0.0,2.0,88,0.00,,,0.00,weatherlink.com 1.10,2013-07-02 17:47:00,
2013-07-02 14:02:00,62.8,61.0,29.97,West,259,0.0,3.0,92,0.00,,,0.00,weatherlink.com 1.10,2013-07-02 18:02:00,
2013-07-02 14:17:00,61.5,60.0,29.97,SE,128,0.0,2.0,95,0.00,,,0.00,weatherlink.com 1.10,2013-07-02 18:17:00,
2013-07-02 14:32:00,60.8,60.0,29.98,ESE,117,0.0,5.0,96,0.00,,,0.00,weatherlink.com 1.10,2013-07-02 18:32:00,
2013-07-02 14:47:00,60.5,60.0,29.97,ESE,116,2.0,3.0,97,0.00,,,0.00,weatherlink.com 1.10,2013-07-02 18:47:00,
2013-07-02 15:02:00,61.1,60.0,29.98,ESE,122,0.0,1.0,97,0.00,,,0.00,weatherlink.com 1.10,2013-07-02 19:02:00,
2013-07-02 15:17:00,61.3,61.0,29.98,ENE,67,0.0,3.0,97,0.00,,,0.00,weatherlink.com 1.10,2013-07-02 19:17:00,
2013-07-02 15:32:00,61.3,61.0,29.97,East,101,0.0,4.0,97,0.00,,,0.00,weatherlink.com 1.10,2013-07-02 19:32:00,
2013-07-02 15:47:00,61.8,61.0,29.98,East,87,0.0,1.0,97,0.00,,,0.00,weatherlink.com 1.10,2013-07-02 19:47:00,
2013-07-02 16:02:00,62.1,61.0,29.97,NE,42,0.0,2.0,96,0.00,,,0.00,weatherlink.com 1.10,2013-07-02 20:02:00,
2013-07-02 16:17:00,61.7,61.0,29.97,East,82,0.0,2.0,96,0.00,,,0.00,weatherlink.com 1.10,2013-07-02 20:17:00,
2013-07-02 16:32:00,62.2,61.0,29.97,NNE,24,0.0,3.0,95,0.00,,,0.00,weatherlink.com 1.10,2013-07-02 20:32:00,
2013-07-02 16:47:00,62.3,61.0,29.97,ESE,117,1.0,2.0,95,0.00,,,0.00,weatherlink.com 1.10,2013-07-02 20:47:00,
2013-07-02 17:02:00,62.4,61.0,29.97,East,92,0.0,3.0,95,0.00,,,0.00,weatherlink.com 1.10,2013-07-02 21:02:00,
2013-07-02 17:17:00,61.9,60.0,29.97,East,101,0.0,3.0,94,0.00,,,0.00,weatherlink.com 1.10,2013-07-02 21:17:00,
2013-07-02 17:32:00,61.5,60.0,29.97,ESE,108,0.0,1.0,96,0.00,,,0.00,weatherlink.com 1.10,2013-07-02 21:32:00,
2013-07-02 17:47:00,62.2,61.0,29.97,East,80,1.0,3.0,95,0.00,,,0.00,weatherlink.com 1.10,2013-07-02 21:47:00,
2013-07-02 18:02:00,61.7,60.0,29.97,East,86,0.0,5.0,95,0.00,,,0.00,weatherlink.com 1.10,2013-07-02 22:02:00,
2013-07-02 18:17:00,61.4,60.0,29.98,East,90,0.0,2.0,95,0.00,,,0.00,weatherlink.com 1.10,2013-07-02 22:17:00,
2013-07-02 18:32:00,60.6,60.0,29.98,North,360,0.0,6.0,96,0.00,,,0.00,weatherlink.com 1.10,2013-07-02 22:32:00,
2013-07-02 18:47:00,60.2,59.0,29.99,ENE,76,1.0,3.0,97,0.00,,,0.00,weatherlink.com 1.10,2013-07-02 22:47:00,
2013-07-02 19:02:00,60.0,59.0,29.99,East,100,1.0,7.0,97,0.00,,,0.00,weatherlink.com 1.10,2013-07-02 23:02:00,
2013-07-02 19:17:00,59.8,59.0,30.00,ENE,59,0.0,3.0,98,0.00,,,0.00,weatherlink.com 1.10,2013-07-02 23:17:00,
2013-07-02 19:32:00,59.8,59.0,30.00,East,84,0.0,3.0,98,0.00,,,0.00,weatherlink.com 1.10,2013-07-02 23:32:00,
2013-07-02 19:47:00,59.7,59.0,30.00,ESE,110,1.0,5.0,98,0.00,,,0.00,weatherlink.com 1.10,2013-07-02 23:47:00,
2013-07-02 20:02:00,59.7,59.0,30.01,ENE,63,0.0,2.0,98,0.00,,,0.00,weatherlink.com 1.10,2013-07-03 00:02:00,
2013-07-02 20:17:00,59.6,59.0,30.02,SE,127,0.0,4.0,98,0.00,,,0.00,weatherlink.com 1.10,2013-07-03 00:17:00,
2013-07-02 20:32:00,59.5,59.0,30.02,East,84,0.0,3.0,98,0.00,,,0.00,weatherlink.com 1.10,2013-07-03 00:32:00,
2013-07-02 20:47:00,59.6,59.0,30.02,East,101,0.0,5.0,98,0.00,,,0.00,weatherlink.com 1.10,2013-07-03 00:47:00,
2013-07-02 21:02:00,59.6,59.0,30.02,SE,142,2.0,8.0,98,0.00,,,0.00,weatherlink.com 1.10,2013-07-03 01:02:00,
2013-07-02 21:17:00,59.8,60.0,30.02,ESE,120,1.0,7.0,99,0.00,,,0.00,weatherlink.com 1.10,2013-07-03 01:17:00,
2013-07-02 21:32:00,59.9,60.0,30.02,ESE,105,5.0,7.0,99,0.00,,,0.00,weatherlink.com 1.10,2013-07-03 01:32:00,
2013-07-02 21:47:00,59.9,60.0,30.02,ENE,71,2.0,8.0,99,0.00,,,0.00,weatherlink.com 1.10,2013-07-03 01:47:00,
2013-07-02 22:02:00,59.5,59.0,30.04,East,90,2.0,6.0,99,0.00,,,0.00,weatherlink.com 1.10,2013-07-03 02:02:00,
2013-07-02 22:17:00,59.5,59.0,30.04,SE,144,2.0,10.0,99,0.00,,,0.00,weatherlink.com 1.10,2013-07-03 02:17:00,
2013-07-02 22:33:00,59.2,59.0,30.05,East,96,0.0,4.0,99,0.00,,,0.00,weatherlink.com 1.10,2013-07-03 02:33:00,
2013-07-02 22:48:00,59.2,59.0,30.05,SE,134,4.0,7.0,99,0.00,,,0.00,weatherlink.com 1.10,2013-07-03 02:48:00,
2013-07-02 23:03:00,59.1,59.0,30.05,ESE,106,0.0,5.0,99,0.00,,,0.00,weatherlink.com 1.10,2013-07-03 03:03:00,
2013-07-02 23:33:00,58.9,59.0,30.05,East,85,0.0,5.0,99,0.00,,,0.00,weatherlink.com 1.10,2013-07-03 03:33:00,
2013-07-02 23:48:00,58.7,59.0,30.05,East,82,1.0,5.0,99,0.00,,,0.00,weatherlink.com 1.10,2013-07-03 03:48:00,